Location: Nowy Sacz
(49.6330°N, 20.7170°E)
Time: 12:41:36
(UTC+01:00)

Envisat - Pass Details

Date: 27 September 2023
Orbit: 762 x 764 km, 98.3° (Epoch: 07 December)

Event Time Altitude Azimuth Distance (km) Brightness Sun altitude
Rises 05:10:17 0° 9° (N) 3,244 6.6 -13.7°
Reaches altitude 10° 05:12:41 10° 3° (N) 2,314 5.7 -13.3°
Maximum altitude 05:17:29 43° 293° (WNW) 1,065 3.4 -12.5°
Drops below altitude 10° 05:22:15 10° 223° (SW) 2,298 5.0 -11.8°
Enters shadow 05:22:21 10° 222° (SW) 2,337 5.0 -11.8°
